COSMOS 249 DEB, 19362

Orbit data source: Space-Track

COSMOS 249 DEB, 19362 is space debris in LEO originally from a launch on Sun, 20 Oct 1968 UTC launched from the Tyuratam Missile And Space Complex (TTMTR). Debris objects in space refer to the collection of defunct objects orbiting the Earth. Examples of debris include non-operational satellites, rocket bodies, and fragments generated from explosions, collisions, or faulty payload assembly.

Loading next visibility...
Identifier
19362, 1968-091DJ
Orbit
LEO
Country
Flag of CISCIS
Related business
Manufacturer
Unknown
Mission
Spacecraft
Bus & Motor
Unknown
Mass
Unknown
Launch date (UTC)
1968-10-20 (57 years ago)
Launch vehicle
Unknown
Launch site
Tyuratam Missile And Space Complex (TTMTR)
Object type
Payload
Rocket body
Debris
Shape & HBR
Unknown shape, 0.1 m
Radar Cross Section
Small (<0.1 m²)

Expand to show TLE details & history
Last TLE update: 1 day ago

TLE from 1 day ago
0 COSMOS 249 DEB
1 19362U 68091DJ  25286.27220611  .00011082  00000-0  16987-2 0  9994
2 19362  62.7741 352.7610 0465995  21.9742 340.0594 14.20588254884810
Epoch: 2025-10-13T06:31Z
TLE epoch observation values (Epoch: 2025-10-13T06:31:58.607Z)
Latitude
-0.00007°
Longitude
-127.3106°
Altitude
511.59 km
Speed
7.772 km/s
True Right ascension
23h 31m 02s
True Declination
0° 00' 00"
Sunlit
Object was in full shadow at epoch
Visualization orbit readout
Latitude
Unknown
Longitude
Unknown
Altitude
Unknown
Speed
Unknown
Apparent Right ascension
Unknown
Apparent Declination
Unknown
Sunlit
N/A
Visualization observer readout
Local Sidereal Time
04:42:01
Azimuth
Unknown
Elevation
Unknown
Doppler factor
Unknown
Orbital elements
Apogee altitude
1,157.761 km
Perigee altitude
486.694 km
Semi-major axis
7,200.364 km
Eccentricity
0.0466
Inclination
62.7741°
RAAN
352.761°
Arg. of periapsis
21.9742°
True anomaly
338.13338°
Mean anomaly
340.0594°
Eccentric anomaly
339.10724°
Mean motion
3.55232 °/min
Orbital period
101.34 mins
BSTAR
0.0016987
Loading maneuver chart data...
Computing Atmospheric mass density...
Loading historical data...
Loading historical data...
Loading historical data...
Loading historical data...
Loading historical data...
Loading historical data...
Loading historical data...

Documentation

Showing up to 5 results
|